Athens, OH

9:01 PM EDT on May 25, 2017 (GMT -0400)
Ohio University

Weather History for KUNI - July, 2013

Change the Weather History Date:

Thursday, July 18, 2013

  Actual Average (KPKB) Record (KPKB)
Temperature  
Mean Temperature 82 °F -  
Max Temperature 91 °F 86 °F 98 °F (1988)
Min Temperature 72 °F 63 °F 50 °F (1892)
Cooling Degree Days 16    
Growing Degree Days 32 (Base 50)    
Moisture  
Dew Point 72 °F    
Average Humidity 75    
Maximum Humidity 95    
Minimum Humidity 49    
Precipitation  
Precipitation 0.00 in - - ()
Sea Level Pressure  
Sea Level Pressure 30.14 in    
Wind  
Wind Speed 1 mph (WSW)    
Max Wind Speed 9 mph    
Max Gust Speed -    
Visibility 8 miles    
Events      
Averages and records for this station are not official NWS values.
T = Trace of Precipitation, MM = Missing Value Source: NWS Daily Summary

Daily Weather History Graph

Daily Weather History Graph

Search for Another Location

Airport or City:

Trip Planner

Search our weather history database for the weather conditions in past years. The results will help you decide how hot, cold, wet, or windy it might be!

Date:

Astronomy

Jul. 18, 2013 Rise Set
Actual Time 6:17 AM EDT 8:52 PM EDT
Civil Twilight 5:46 AM EDT 9:23 PM EDT
Nautical Twilight 5:07 AM EDT 10:02 PM EDT
Astronomical Twilight 4:24 AM EDT 10:45 PM EDT
Moon 4:48 PM EDT (7/18) 2:06 AM EDT (7/18)
Length of Visible Light 15h 37m
Length of Day
14h 34m
Waxing Gibbous, 77% of the Moon is Illuminated
Jul 18
Waxing Gibbous
Jul 22
Full
Jul 29
Last Quarter
Aug 6
New
Aug 14
First Quarter

Hourly Weather History & Observations

Time (EDT) Temp. Heat Index Dew Point Humidity Pressure Visibility Wind Dir Wind Speed Gust Speed Precip Events Conditions
12:15 AM 76.1 °F - 73.8 °F 92% 30.21 in 5.0 mi Calm Calm - N/A   Scattered Clouds
12:35 AM 75.9 °F - 73.6 °F 92% 30.20 in 7.0 mi Calm Calm - N/A   Scattered Clouds
12:55 AM 75.4 °F - 73.4 °F 94% 30.20 in 5.0 mi Calm Calm - N/A   Scattered Clouds
1:15 AM 75.6 °F - 73.6 °F 94% 30.20 in 7.0 mi Calm Calm - N/A   Clear
1:35 AM 75.4 °F - 73.4 °F 94% 30.20 in 7.0 mi Calm Calm - N/A   Clear
1:55 AM 75.4 °F - 73.2 °F 93% 30.20 in 7.0 mi Calm Calm - N/A   Clear
2:15 AM 74.8 °F - 72.9 °F 94% 30.19 in 5.0 mi Calm Calm - N/A   Clear
2:35 AM 74.3 °F - 72.5 °F 94% 30.19 in 5.0 mi Calm Calm - N/A   Clear
2:55 AM 73.8 °F - 71.8 °F 93% 30.18 in 7.0 mi Calm Calm - N/A   Clear
3:15 AM 74.5 °F - 72.7 °F 94% 30.18 in 5.0 mi Calm Calm - N/A   Clear
3:35 AM 73.9 °F - 72.1 °F 94% 30.18 in 2.0 mi Calm Calm - N/A   Clear
3:55 AM 73.6 °F - 71.8 °F 94% 30.18 in 5.0 mi Calm Calm - N/A   Clear
4:15 AM 73.4 °F - 71.6 °F 94% 30.18 in 5.0 mi Calm Calm - N/A   Clear
4:35 AM 73.4 °F - 71.6 °F 94% 30.17 in 7.0 mi Calm Calm - N/A   Clear
4:55 AM 72.7 °F - 70.9 °F 94% 30.18 in 2.5 mi Calm Calm - N/A   Clear
5:15 AM 72.5 °F - 70.7 °F 94% 30.17 in 4.0 mi Calm Calm - N/A   Clear
5:35 AM 72.1 °F - 70.5 °F 95% 30.17 in 2.0 mi Calm Calm - N/A   Clear
5:55 AM 72.3 °F - 70.7 °F 95% 30.18 in 5.0 mi Calm Calm - N/A   Clear
6:15 AM 72.5 °F - 70.9 °F 95% 30.18 in 5.0 mi Calm Calm - N/A   Clear
6:35 AM 72.1 °F - 70.7 °F 95% 30.18 in 5.0 mi Calm Calm - N/A   Clear
6:55 AM 72.9 °F - 71.2 °F 95% 30.18 in 7.0 mi Calm Calm - N/A   Clear
7:15 AM 73.6 °F - 71.6 °F 93% 30.19 in 7.0 mi Calm Calm - N/A   Clear
7:35 AM 74.8 °F - 72.5 °F 92% 30.19 in 7.0 mi Calm Calm - N/A   Clear
7:55 AM 76.8 °F - 73.0 °F 88% 30.19 in 10.0 mi Calm Calm - N/A   Clear
8:15 AM 77.9 °F - 73.0 °F 85% 30.19 in 10.0 mi Calm Calm - N/A   Clear
8:35 AM 79.9 °F - 72.5 °F 78% 30.20 in 10.0 mi Calm Calm - N/A   Clear
8:55 AM 81.3 °F 85.9 °F 72.5 °F 74% 30.19 in 10.0 mi Calm Calm - N/A   Clear
9:15 AM 82.0 °F 87.0 °F 72.1 °F 72% 30.20 in 10.0 mi Calm Calm - N/A   Clear
9:35 AM 83.8 °F 89.8 °F 72.5 °F 69% 30.19 in 10.0 mi ENE 3.5 mph - N/A   Clear
9:55 AM 84.2 °F 89.9 °F 72.3 °F 67% 30.19 in 10.0 mi Calm Calm - N/A   Clear
10:15 AM 85.1 °F 91.5 °F 72.5 °F 66% 30.18 in 10.0 mi Calm Calm - N/A   Clear
10:35 AM 86.9 °F 93.3 °F 72.0 °F 61% 30.18 in 10.0 mi Calm Calm - N/A   Clear
10:55 AM 86.9 °F 93.7 °F 72.3 °F 62% 30.18 in 10.0 mi Calm Calm - N/A   Clear
11:15 AM 87.8 °F 93.8 °F 71.6 °F 58% 30.18 in 10.0 mi Calm Calm - N/A   Clear
11:35 AM 88.3 °F 94.5 °F 71.2 °F 57% 30.17 in 10.0 mi Calm Calm - N/A   Scattered Clouds
11:55 AM 87.4 °F 92.7 °F 70.5 °F 57% 30.17 in 10.0 mi Calm Calm - N/A   Scattered Clouds
12:15 PM 89.2 °F 96.9 °F 72.7 °F 58% 30.17 in 10.0 mi SSW 4.6 mph - N/A   Mostly Cloudy
12:35 PM 88.9 °F 93.8 °F 70.0 °F 53% 30.17 in 10.0 mi SSW 4.6 mph - N/A   Scattered Clouds
12:55 PM 88.5 °F 94.4 °F 70.9 °F 56% 30.16 in 10.0 mi WNW 3.5 mph - N/A   Scattered Clouds
1:15 PM 89.6 °F 95.2 °F 70.3 °F 53% 30.16 in 10.0 mi West 4.6 mph - N/A   Scattered Clouds
1:35 PM 90.1 °F 95.8 °F 70.3 °F 52% 30.15 in 10.0 mi West 3.5 mph - N/A   Mostly Cloudy
1:55 PM 90.5 °F 96.0 °F 70.2 °F 51% 30.15 in 10.0 mi WSW 6.9 mph - N/A   Scattered Clouds
2:15 PM 90.7 °F 96.4 °F 70.5 °F 51% 30.14 in 10.0 mi WSW 5.8 mph - N/A   Scattered Clouds
2:35 PM 89.4 °F 95.3 °F 70.7 °F 54% 30.14 in 10.0 mi SSW 4.6 mph - N/A   Scattered Clouds
2:55 PM 90.3 °F 94.7 °F 68.7 °F 49% 30.13 in 10.0 mi WSW 3.5 mph - N/A   Scattered Clouds
3:15 PM 89.8 °F 93.8 °F 68.5 °F 49% 30.13 in 10.0 mi West 5.8 mph - N/A   Mostly Cloudy
3:35 PM 90.7 °F 96.4 °F 70.2 °F 51% 30.12 in 10.0 mi West 9.2 mph - N/A   Mostly Cloudy
3:55 PM 90.1 °F 96.8 °F 71.6 °F 54% 30.10 in 10.0 mi SW 4.6 mph - N/A   Scattered Clouds
4:15 PM 90.1 °F 97.3 °F 71.8 °F 55% 30.10 in 10.0 mi SW 6.9 mph - N/A   Clear
4:35 PM 91.2 °F 97.5 °F 70.5 °F 51% 30.09 in 10.0 mi SW 5.8 mph - N/A   Clear
4:55 PM 90.7 °F 95.4 °F 69.1 °F 49% 30.09 in 10.0 mi West 8.1 mph - N/A   Clear
5:15 PM 90.7 °F 95.9 °F 70.0 °F 50% 30.09 in 10.0 mi WSW 4.6 mph - N/A   Clear
6:15 PM 90.5 °F 96.0 °F 70.0 °F 51% 30.07 in 10.0 mi WSW 4.6 mph - N/A   Clear
6:35 PM 90.0 °F 95.9 °F 70.9 °F 53% 30.06 in 10.0 mi WNW 4.6 mph - N/A   Clear
6:55 PM 89.8 °F 95.1 °F 70.0 °F 52% 30.06 in 10.0 mi WNW 3.5 mph - N/A   Clear
7:15 PM 88.7 °F 95.7 °F 72.1 °F 58% 30.06 in 10.0 mi SW 3.5 mph - N/A   Clear
7:35 PM 87.8 °F 94.7 °F 72.1 °F 60% 30.07 in 10.0 mi Calm Calm - N/A   Clear
7:55 PM 86.4 °F 93.8 °F 73.4 °F 65% 30.07 in 10.0 mi Calm Calm - N/A   Clear
8:15 PM 85.1 °F 92.9 °F 74.3 °F 70% 30.06 in 10.0 mi Calm Calm - N/A   Clear
8:35 PM 82.6 °F 89.4 °F 74.8 °F 77% 30.06 in 10.0 mi Calm Calm - N/A   Clear
8:55 PM 81.3 °F 87.0 °F 74.1 °F 79% 30.06 in 10.0 mi Calm Calm - N/A   Clear
9:15 PM 79.7 °F - 74.7 °F 84% 30.07 in 10.0 mi Calm Calm - N/A   Clear
9:35 PM 78.8 °F - 73.9 °F 85% 30.07 in 7.0 mi Calm Calm - N/A   Clear
9:55 PM 78.8 °F - 73.4 °F 83% 30.08 in 3.0 mi Calm Calm - N/A   Haze
10:15 PM 78.1 °F - 74.1 °F 88% 30.08 in 10.0 mi Calm Calm - N/A   Clear
10:35 PM 77.5 °F - 74.3 °F 90% 30.07 in 10.0 mi Calm Calm - N/A   Clear
10:55 PM 77.0 °F - 74.3 °F 91% 30.07 in 7.0 mi Calm Calm - N/A   Clear
11:15 PM 77.0 °F - 74.5 °F 92% 30.07 in 7.0 mi Calm Calm - N/A   Clear
11:35 PM 77.0 °F - 74.3 °F 91% 30.07 in 7.0 mi Calm Calm - N/A   Clear
11:55 PM 75.6 °F - 73.4 °F 93% 30.08 in 5.0 mi Calm Calm - N/A   Clear